Weslaco, TX

6:26 AM CST on November 18, 2017 (GMT -0600)
Weslaco

Weather History for KT65 - April, 2014

Change the Weather History Date:

Friday, April 4, 2014

  Actual Average (KMFE) Record (KMFE)
Temperature  
Mean Temperature 74 °F -  
Max Temperature 80 °F 82 °F 103 °F (2011)
Min Temperature 69 °F 63 °F 48 °F (1987)
Cooling Degree Days 10    
Growing Degree Days 24 (Base 50)    
Moisture  
Dew Point 57 °F    
Average Humidity 58    
Maximum Humidity 82    
Minimum Humidity 30    
Precipitation  
Precipitation 0.00 in - - ()
Sea Level Pressure  
Sea Level Pressure 29.89 in    
Wind  
Wind Speed 12 mph (NE)    
Max Wind Speed 25 mph    
Max Gust Speed 34 mph    
Visibility 8 miles    
Events Rain    
Averages and records for this station are not official NWS values.
T = Trace of Precipitation, MM = Missing Value Source: NWS Daily Summary

Daily Weather History Graph

Daily Weather History Graph

Search for Another Location

Airport or City:

Trip Planner

Search our weather history database for the weather conditions in past years. The results will help you decide how hot, cold, wet, or windy it might be!

Date:

Astronomy

Apr. 04, 2014 Rise Set
Actual Time 7:19 AM CDT 7:50 PM CDT
Civil Twilight 6:56 AM CDT 8:13 PM CDT
Nautical Twilight 6:29 AM CDT 8:40 PM CDT
Astronomical Twilight 6:01 AM CDT 9:08 PM CDT
Moon 10:57 AM CDT (4/4) No Moon Set
Length of Visible Light 13h 17m
Length of Day
12h 30m
Waxing Crescent, 25% of the Moon is Illuminated
Apr 4
Waxing Crescent
Apr 7
First Quarter
Apr 15
Full
Apr 22
Last Quarter
Apr 29
New

Hourly Weather History & Observations

Time (CDT) Temp. Heat Index Dew Point Humidity Pressure Visibility Wind Dir Wind Speed Gust Speed Precip Events Conditions
12:15 AM 77.0 °F - 69.8 °F 78% 29.75 in 7.0 mi South 13.8 mph 18.4 mph N/A   Overcast
12:35 AM 77.0 °F - 69.4 °F 77% 29.75 in 7.0 mi South 16.1 mph 24.2 mph N/A   Overcast
12:55 AM 77.0 °F - 69.1 °F 76% 29.75 in 7.0 mi South 17.3 mph 23.0 mph N/A   Overcast
1:15 AM 77.0 °F - 69.1 °F 76% 29.74 in 7.0 mi South 16.1 mph 19.6 mph N/A   Overcast
1:35 AM 77.0 °F - 69.1 °F 76% 29.73 in 7.0 mi South 17.3 mph 20.7 mph N/A   Overcast
1:55 AM 77.2 °F - 68.5 °F 75% 29.73 in 7.0 mi South 17.3 mph 26.5 mph N/A   Overcast
2:15 AM 77.0 °F - 68.5 °F 75% 29.73 in 7.0 mi SSE 15.0 mph 19.6 mph N/A   Overcast
2:35 AM 77.0 °F - 68.9 °F 76% 29.73 in 7.0 mi South 11.5 mph - N/A   Overcast
2:55 AM 77.0 °F - 68.7 °F 75% 29.74 in 7.0 mi South 12.7 mph 21.9 mph N/A   Overcast
3:15 AM 77.0 °F - 68.9 °F 76% 29.74 in 7.0 mi South 10.4 mph 18.4 mph N/A   Overcast
3:35 AM 77.0 °F - 68.5 °F 75% 29.74 in 7.0 mi South 10.4 mph 18.4 mph N/A   Overcast
3:55 AM 76.5 °F - 68.4 °F 76% 29.73 in 7.0 mi South 10.4 mph - N/A   Overcast
4:15 AM 76.1 °F - 68.0 °F 76% 29.73 in 7.0 mi South 10.4 mph - N/A   Overcast
4:35 AM 75.2 °F - 68.0 °F 78% 29.72 in 7.0 mi South 10.4 mph 17.3 mph N/A   Mostly Cloudy
4:55 AM 74.7 °F - 68.0 °F 80% 29.73 in 7.0 mi South 4.6 mph - N/A   Scattered Clouds
5:15 AM 75.2 °F - 68.2 °F 79% 29.77 in 7.0 mi NNE 3.5 mph - N/A   Mostly Cloudy
5:35 AM 75.2 °F - 68.4 °F 79% 29.80 in 7.0 mi North 5.8 mph - N/A   Overcast
5:55 AM 75.4 °F - 68.5 °F 79% 29.80 in 7.0 mi NNE 4.6 mph - N/A   Overcast
6:15 AM 75.2 °F - 68.4 °F 79% 29.80 in 7.0 mi ENE 4.6 mph - N/A   Overcast
6:35 AM 75.2 °F - 68.2 °F 79% 29.82 in 7.0 mi NE 5.8 mph - N/A   Overcast
6:55 AM 74.8 °F - 68.4 °F 80% 29.82 in 7.0 mi NNE 4.6 mph - N/A   Overcast
7:15 AM 75.2 °F - 68.4 °F 79% 29.83 in 7.0 mi NNE 4.6 mph - N/A   Overcast
7:35 AM 75.2 °F - 68.4 °F 79% 29.84 in 7.0 mi NE 4.6 mph - N/A   Overcast
7:55 AM 74.5 °F - 68.5 °F 82% 29.86 in 5.0 mi North 4.6 mph - N/A   Haze
8:15 AM 75.2 °F - 68.9 °F 81% 29.86 in 5.0 mi NNE 3.5 mph - N/A   Haze
8:35 AM 75.7 °F - 68.9 °F 79% 29.86 in 5.0 mi NNE 4.6 mph - N/A   Haze
8:55 AM 76.1 °F - 69.1 °F 79% 29.87 in 5.0 mi NE 5.8 mph - N/A   Haze
9:15 AM 76.1 °F - 69.1 °F 79% 29.88 in 5.0 mi ENE 3.5 mph - N/A   Haze
9:35 AM 78.1 °F - 69.4 °F 75% 29.89 in 5.0 mi NNE 10.4 mph - N/A   Haze
9:55 AM 76.5 °F - 68.9 °F 77% 29.90 in 4.0 mi North 8.1 mph - N/A   Haze
10:15 AM 77.0 °F - 68.9 °F 76% 29.91 in 5.0 mi NNE 10.4 mph - N/A   Haze
10:35 AM 78.1 °F - 69.1 °F 74% 29.91 in 5.0 mi North 10.4 mph - N/A   Haze
10:55 AM 79.9 °F - 68.7 °F 69% 29.92 in 7.0 mi NNE 9.2 mph - N/A   Overcast
11:15 AM 80.2 °F 83.2 °F 69.1 °F 69% 29.93 in 7.0 mi NNE 9.2 mph - N/A   Overcast
11:35 AM 79.7 °F - 68.9 °F 69% 29.94 in 7.0 mi North 9.2 mph - N/A   Overcast
11:55 AM 78.3 °F - 68.4 °F 71% 29.95 in 5.0 mi NNE 15.0 mph 20.7 mph N/A   Haze
12:15 PM 74.1 °F - 67.3 °F 79% 29.96 in 5.0 mi NNE 21.9 mph 28.8 mph N/A Rain Rain
12:35 PM 71.4 °F - 55.9 °F 58% 29.98 in 7.0 mi NNE 23.0 mph 33.4 mph N/A   Overcast
12:55 PM 73.4 °F - 55.6 °F 54% 29.98 in 7.0 mi NE 17.3 mph 29.9 mph N/A   Overcast
1:15 PM 73.4 °F - 54.7 °F 52% 29.99 in 7.0 mi NE 18.4 mph 25.3 mph N/A   Overcast
1:35 PM 73.4 °F - 50.2 °F 44% 30.00 in 7.0 mi NE 20.7 mph 29.9 mph N/A   Overcast
1:55 PM 73.8 °F - 50.9 °F 45% 30.00 in 7.0 mi NNE 16.1 mph 25.3 mph N/A   Overcast
2:15 PM 73.0 °F - 48.4 °F 42% 30.00 in 10.0 mi NE 21.9 mph 29.9 mph N/A   Overcast
2:35 PM 73.4 °F - 46.6 °F 38% 29.99 in 7.0 mi NNE 25.3 mph 33.4 mph N/A   Overcast
3:15 PM 74.8 °F - 46.2 °F 36% 29.97 in 10.0 mi NE 24.2 mph 34.5 mph N/A   Overcast
3:55 PM 75.0 °F - 46.0 °F 36% 29.96 in 10.0 mi NE 21.9 mph 33.4 mph N/A   Overcast
4:15 PM 74.7 °F - 44.1 °F 33% 29.96 in 10.0 mi NE 20.7 mph 31.1 mph N/A   Overcast
4:35 PM 74.3 °F - 43.9 °F 34% 29.95 in 10.0 mi NE 21.9 mph 31.1 mph N/A   Overcast
4:55 PM 73.6 °F - 43.5 °F 34% 29.96 in 10.0 mi NE 20.7 mph 27.6 mph N/A   Overcast
5:15 PM 73.4 °F - 43.3 °F 34% 29.96 in 10.0 mi NE 19.6 mph 25.3 mph N/A   Overcast
5:35 PM 73.2 °F - 42.6 °F 33% 29.96 in 10.0 mi NE 19.6 mph 25.3 mph N/A   Overcast
5:55 PM 73.0 °F - 39.9 °F 30% 29.96 in 10.0 mi NE 17.3 mph 25.3 mph N/A   Overcast
6:15 PM 72.5 °F - 39.6 °F 30% 29.96 in 10.0 mi NE 19.6 mph 24.2 mph N/A   Overcast
6:35 PM 72.5 °F - 39.0 °F 30% 29.96 in 10.0 mi NE 12.7 mph 20.7 mph N/A   Overcast
6:55 PM 72.3 °F - 39.0 °F 30% 29.96 in 10.0 mi NE 13.8 mph - N/A   Overcast
7:15 PM 72.0 °F - 38.7 °F 30% 29.97 in 10.0 mi NE 16.1 mph 23.0 mph N/A   Overcast
7:35 PM 71.6 °F - 39.0 °F 31% 29.97 in 10.0 mi NE 13.8 mph 18.4 mph N/A   Overcast
7:55 PM 71.2 °F - 39.7 °F 32% 29.98 in 10.0 mi NE 10.4 mph - N/A   Overcast
8:15 PM 70.9 °F - 39.9 °F 32% 29.97 in 10.0 mi NE 12.7 mph 19.6 mph N/A   Overcast
8:35 PM 70.7 °F - 40.3 °F 33% 29.97 in 10.0 mi NE 8.1 mph - N/A   Overcast
8:55 PM 70.7 °F - 40.8 °F 34% 29.98 in 10.0 mi NE 8.1 mph - N/A   Overcast
9:15 PM 70.3 °F - 41.4 °F 35% 29.98 in 10.0 mi NE 8.1 mph - N/A   Overcast
9:35 PM 70.2 °F - 42.8 °F 37% 29.98 in 10.0 mi NE 6.9 mph - N/A   Overcast
9:55 PM 70.0 °F - 43.3 °F 38% 30.00 in 10.0 mi NE 5.8 mph - N/A   Overcast
10:15 PM 69.8 °F - 44.1 °F 39% 30.01 in 10.0 mi NE 4.6 mph - N/A   Overcast
10:35 PM 69.4 °F - 44.8 °F 41% 30.01 in 10.0 mi NE 6.9 mph - N/A   Overcast
10:55 PM 69.6 °F - 45.0 °F 41% 30.01 in 10.0 mi ENE 4.6 mph - N/A   Overcast
11:15 PM 69.6 °F - 45.5 °F 42% 30.01 in 10.0 mi NE 6.9 mph - N/A   Overcast
11:35 PM 69.3 °F - 46.4 °F 44% 30.00 in 10.0 mi ENE 4.6 mph - N/A   Overcast
11:55 PM 69.3 °F - 46.9 °F 45% 30.00 in 10.0 mi ENE 5.8 mph - N/A   Overcast